Regional Weather Roundup
Issued by NWS

Home | Current Version | Previous Version | Text Only | Print | Product List | Glossary Off
Versions: 1 2 3 4 5 6 7 8 9 10 11 12 13 14 15 16 17 18 19 20 21 22 23 24 25 26 27 28 29 30 31 32 33 34 35 36 37 38 39 40 41 42 43 44 45 46 47 48 49 50

239
ASUS43 KIND 301759
RWRIN

WEATHER ROUNDUP FOR INDIANA
NATIONAL WEATHER SERVICE INDIANAPOLIS IN
200 PM EDT SAT APR 30 2016

NOTE: "FAIR" INDICATES FEW OR NO CLOUDS BELOW 12,000 FEET WITH NO
SIGNIFICANT WEATHER AND/OR OBSTRUCTIONS TO VISIBILITY.

* - STATION DOES NOT REPORT WEATHER SUCH AS PRECIPITATION OR FOG.

+ - STATION NOT QUALITY CONTROLLED BY THE NATIONAL WEATHER SERVICE.
    USE DATA WITH CAUTION...ESPECIALLY DEWPOINT AND RELATIVE
    HUMIDITY OBSERVATIONS.

INZ001>003-010>013-019-020-301900-
NORTHWEST INDIANA

CITY           SKY/WX    TMP DP  RH WIND       PRES   REMARKS
GARY /AIRPORT/ LGT RAIN  48  48 100 E12       29.98F
RENSSELAER +   LGT RAIN  46  46 100 E18       29.94F
VALPARAISO     LGT RAIN  46  43  87 E16       29.98F FOG

$$

LMZ046-743>745-301900-
SOUTHERN LAKE MICHIGAN

STATION/POSITION TIME  TEMP    WIND        PRES    WAVE
                       AIR SEA DIR/SP/G            HT
                 (UTC) (F)     (DEG/KT/KT) (MB)    (FT)
BURNS HARBOR     1705   46      90/ 12/ 18 1016.6F
MICHIGAN CITY    1700   45      60/ 12/ 16   N/A

$$

INZ004-005-014>016-021>024-301900-
NORTH CENTRAL INDIANA

CITY           SKY/WX    TMP DP  RH WIND       PRES   REMARKS
ELKHART        LGT RAIN  48  46  93 E14       30.03F
GOSHEN         LGT RAIN  48  42  80 E14       30.02F
6HR MIN TEMP:  45; 6HR MAX TEMP:  49; 6HR PCP:  0.07;

SOUTH BEND     LGT RAIN  47  42  83 E15G21    30.02F
6HR MIN TEMP:  45; 6HR MAX TEMP:  48; 6HR PCP:  0.09;


$$

INZ006>009-017-018-025>027-301900-
NORTHEAST INDIANA

CITY           SKY/WX    TMP DP  RH WIND       PRES   REMARKS
ANGOLA *+      PTSUNNY   48  43  81 E9        30.05F
FORT WAYNE     LGT RAIN  48  44  86 E15       30.03F FOG
6HR MIN TEMP:  43; 6HR MAX TEMP:  48; 6HR PCP:  0.08;


$$

INZ028-029-035-036-043>045-051>053-301900-
WEST CENTRAL INDIANA

CITY           SKY/WX    TMP DP  RH WIND       PRES   REMARKS
CRAWFORDSVL +  LGT RAIN  53  53 100 E16G24    29.88F
6HR MIN TEMP:  48; 6HR MAX TEMP:  53; 6HR PCP:  0.48;

GREENCASTLE +  LGT RAIN  54  54 100 SE9G17    29.91S
LAFAYETTE      RAIN      50  49  96 E18       29.89F FOG
6HR MIN TEMP:  48; 6HR MAX TEMP:  50; 6HR PCP:  0.43;

TERRE HAUTE    LGT RAIN  58  55  90 SE16G22   29.87F
6HR MIN TEMP:  53; 6HR MAX TEMP:  58; 6HR PCP:  0.34;


$$

INZ030>032-037>040-046>048-054>057-064-065-301900-
CENTRAL INDIANA

CITY           SKY/WX    TMP DP  RH WIND       PRES   REMARKS
ANDERSON       LGT RAIN  50  50 100 E6        29.99F
COLUMBUS       LGT RAIN  55  55 100 E9        29.92F FOG
INDIANAPOLIS   RAIN      54  51  90 E20       29.84F FOG
6HR MIN TEMP:  50; 6HR MAX TEMP:  54; 6HR PCP:  0.57;

-EAGLE CREEK   LGT RAIN  54  52  93 E13G20    29.89F FOG
6HR MIN TEMP:  50; 6HR MAX TEMP:  54; 6HR PCP:  0.49;

KOKOMO *+      CLOUDY    48  45  87 E15       29.97F
6HR MIN TEMP:  46; 6HR MAX TEMP:  48; 6HR PCP:  0.27;

SHELBYVILLE    LGT RAIN  57  52  83 E14       29.94S
6HR MIN TEMP:  53; 6HR MAX TEMP:  57; 6HR PCP:  0.31;


$$

INZ033-034-041-042-049-050-058-059-301900-
EAST CENTRAL INDIANA

CITY           SKY/WX    TMP DP  RH WIND       PRES   REMARKS
MUNCIE         LGT RAIN  51  48  89 E14       29.98F FOG
6HR MIN TEMP:  49; 6HR MAX TEMP:  51; 6HR PCP:  0.27;


$$

INZ060-061-067>069-081>083-085>088-301900-
SOUTHWEST INDIANA

CITY           SKY/WX    TMP DP  RH WIND       PRES   REMARKS
EVANSVILLE     CLOUDY    64  61  90 SE8       29.88F
6HR MIN TEMP:  58; 6HR MAX TEMP:  64; 6HR PCP:  0.33;

HUNTINGBURG *+ CLOUDY    63  57  82 SE13      29.88F
6HR MIN TEMP:  57; 6HR MAX TEMP:  63; 6HR PCP:  0.23;


$$

INZ062-063-066-070>080-084-089>092-301900-
SOUTH CENTRAL AND SOUTHEAST INDIANA

CITY           SKY/WX    TMP DP  RH WIND       PRES   REMARKS
BLOOMINGTON    LGT RAIN  57  54  89 SE9G18    29.90R
6HR MIN TEMP:  54; 6HR MAX TEMP:  57; 6HR PCP:  0.38;

MADISON *+     CLOUDY    55  54  94 E10       29.97F
SEYMOUR +      LGT RAIN  59  57  94 SE13      29.90F

$$





USA.gov is the U.S. government's official web portal to all federal, state and local government web resources and services.